GW2402 Weather Reports


Display with metric or nautical units.
time (UTC)temp
F
wind
direction
speed
MPH
gust
MPH
rain 1hr
in
rain 24hr
in
rain mn
in
humidity
%
barometer
mb
20260507113055 60 101 0.0 3.0 0.00 0.00 0.00 85 1016.8
20260507111542 60 278 0.0 2.0 0.00 0.00 0.00 85 1016.6
20260507110051 60 290 0.0 3.0 0.00 0.00 0.00 85 1016.5
20260507104553 60 147 0.0 3.0 0.00 0.00 0.00 85 1016.6
20260507103047 61 0 0.0 3.0 0.00 0.00 0.00 84 1016.2
20260507101551 61 0 0.0 3.0 0.00 0.00 0.00 84 1016.2
20260507100044 61 0 0.0 1.0 0.00 0.00 0.00 84 1016.1
20260507094549 61 0 0.0 1.0 0.00 0.00 0.00 83 1016.1
20260507093047 61 0 0.0 1.0 0.00 0.00 0.00 83 1015.5
20260507091546 61 96 0.0 1.0 0.00 0.00 0.00 83 1015.8
20260507090045 61 0 0.0 1.0 0.00 0.00 0.00 83 1015.7
20260507084549 62 0 0.0 1.0 0.00 0.00 0.00 83 1015.4
20260507083048 62 0 0.0 0.0 0.00 0.00 0.00 83 1015.7
20260507081547 62 0 0.0 1.0 0.00 0.00 0.00 82 1015.2
20260507080054 62 0 0.0 1.0 0.00 0.00 0.00 82 1015.0
20260507074601 62 0 0.0 0.0 0.00 0.00 0.00 82 1014.6
20260507073049 62 0 0.0 0.0 0.00 0.00 0.00 82 1014.8
20260507071552 62 0 0.0 1.0 0.00 0.00 0.00 82 1014.7
20260507070105 62 0 0.0 1.0 0.00 0.00 0.00 81 1015.1
20260507064554 62 0 0.0 1.0 0.00 0.00 0.00 81 1015.3
20260507063056 62 0 0.0 2.0 0.00 0.00 0.00 80 1015.1
20260507061550 63 0 0.0 1.0 0.00 0.00 0.00 80 1015.1
20260507060045 63 0 0.0 3.0 0.00 0.00 0.00 80 1014.8
20260507054548 63 0 0.0 0.0 0.00 0.00 0.00 80 1014.9
20260507053047 63 0 0.0 1.0 0.00 0.00 0.00 80 1014.8
20260507051545 63 0 0.0 2.0 0.00 0.00 0.00 80 1015.0
20260507050053 63 0 0.0 1.0 0.00 0.00 0.00 80 1014.8
20260507044542 63 146 0.0 2.0 0.00 0.00 0.00 80 1014.6
20260507043048 63 0 0.0 2.0 0.00 0.00 0.00 80 1015.0
20260507041548 64 0 0.0 2.0 0.00 0.00 0.00 79 1014.6
20260507040046 64 0 0.0 2.0 0.00 0.00 0.00 80 1014.6
20260507034547 64 0 0.0 3.0 0.00 0.00 0.00 79 1014.6
20260507033042 64 0 0.0 1.0 0.00 0.00 0.00 80 1014.7
20260507031546 64 0 0.0 1.0 0.00 0.00 0.00 80 1014.6
20260507030048 64 87 0.0 3.0 0.00 0.00 0.00 80 1014.4
20260507024545 65 0 0.0 2.0 0.00 0.00 0.00 79 1013.8
20260507023043 65 0 0.0 3.0 0.00 0.00 0.00 79 1014.3
20260507021549 65 0 0.0 3.0 0.00 0.00 0.00 80 1013.7
20260507020051 65 0 0.0 2.0 0.00 0.00 0.00 80 1013.9
20260507014552 65 0 0.0 1.0 0.00 0.00 0.00 79 1013.4
20260507013158 65 0 0.0 3.0 0.00 0.00 0.00 79 1012.9
20260507011544 65 0 0.0 2.0 0.00 0.00 0.00 79 1012.8
20260507010058 65 0 0.0 1.0 0.00 0.00 0.00 79 1012.8
20260507004550 65 0 0.0 1.0 0.00 0.00 0.00 78 1012.4
20260507003046 65 0 0.0 4.0 0.00 0.00 0.00 78 1012.3
20260507001550 65 0 0.0 5.0 0.00 0.00 0.00 78 1012.4
20260507000047 66 278 0.0 2.0 0.00 0.00 0.00 78 1012.4
20260506234549 66 27 0.0 3.0 0.00 0.00 0.00 78 1012.3
20260506233103 66 289 0.0 3.0 0.00 0.00 0.00 77 1012.2
20260506231547 66 266 0.0 3.0 0.00 0.00 0.00 76 1012.1
20260506230050 67 112 0.0 3.0 0.00 0.00 0.00 75 1012.1
20260506224544 68 0 0.0 3.0 0.00 0.00 0.00 75 1011.9
20260506223050 69 0 0.0 2.0 0.00 0.00 0.00 73 1011.8
20260506221555 69 0 1.0 6.0 0.00 0.00 0.00 73 1011.7
20260506220050 70 93 2.0 9.0 0.00 0.00 0.00 72 1011.8
20260506214551 70 103 1.0 5.0 0.00 0.00 0.00 71 1011.6
20260506213046 73 0 0.0 4.0 0.00 0.00 0.00 70 1011.4
20260506211545 73 0 1.0 6.0 0.00 0.00 0.00 70 1011.3
20260506210044 73 108 0.0 2.0 0.00 0.00 0.00 72 1011.3
20260506204549 73 151 1.0 5.0 0.00 0.00 0.00 72 1011.9
20260506203049 73 291 0.0 3.0 0.00 0.00 0.00 74 1011.7
20260506201547 74 229 2.0 7.0 0.00 0.00 0.00 72 1011.5
20260506200049 77 0 0.0 2.0 0.00 0.00 0.00 73 1011.0
20260506194553 78 0 0.0 1.0 0.00 0.00 0.00 73 1011.0
20260506193049 78 98 0.0 2.0 0.00 0.00 0.00 73 1010.9
20260506191549 78 243 0.0 2.0 0.00 0.00 0.00 75 1011.1
20260506190046 77 0 0.0 3.0 0.00 0.00 0.00 76 1011.2
20260506184544 76 0 0.0 3.0 0.00 0.00 0.00 77 1010.9
20260506183049 76 280 0.0 2.0 0.00 0.00 0.00 77 1011.3
20260506181547 74 0 0.0 3.0 0.00 0.00 0.00 77 1011.3
20260506180047 73 266 0.0 0.0 0.00 0.00 0.00 80 1011.5
20260506174548 72 0 0.0 2.0 0.00 0.00 0.00 79 1011.5
20260506173104 72 100 0.0 2.0 0.00 0.00 0.00 80 1011.5
20260506171548 71 0 0.0 1.0 0.00 0.00 0.00 82 1011.4
20260506170056 69 290 0.0 1.0 0.00 0.00 0.00 83 1011.7
20260506164609 67 252 0.0 1.0 0.00 0.00 0.00 88 1012.0
20260506163047 67 257 1.0 4.0 0.00 0.00 0.00 86 1012.7
20260506161542 69 260 0.0 3.0 0.00 0.00 0.00 85 1012.6
20260506160104 74 88 1.0 6.0 0.00 0.00 0.00 81 1012.3
20260506154550 77 0 0.0 0.0 0.00 0.00 0.00 89 1011.5
20260506153042 77 0 0.0 0.0 0.00 0.00 0.00 90 1011.1
20260506151543 77 0 0.0 0.0 0.00 0.00 0.00 90 1010.8
20260506150049 77 0 0.0 0.0 0.00 0.00 0.00 90 1010.4
20260506144547 76 0 0.0 0.0 0.00 0.00 0.00 91 1010.2
20260506143050 76 0 0.0 0.0 0.00 0.00 0.00 91 1009.9
20260506141604 76 0 0.0 0.0 0.00 0.00 0.00 91 1010.0
20260506140047 76 0 0.0 0.0 0.00 0.00 0.00 91 1009.8
20260506134542 76 0 0.0 0.0 0.00 0.00 0.00 91 1009.4
20260506133048 76 0 0.0 0.0 0.00 0.00 0.00 92 1009.2
20260506131548 75 0 0.0 0.0 0.00 0.00 0.00 92 1009.1
20260506130047 75 0 0.0 0.0 0.00 0.00 0.00 92 1009.1
20260506124547 75 0 0.0 0.0 0.00 0.00 0.00 92 1009.0
20260506123046 75 0 0.0 0.0 0.00 0.00 0.00 92 1009.0
20260506121548 75 0 0.0 0.0 0.00 0.00 0.00 92 1008.9
20260506120115 75 0 0.0 0.0 0.00 0.00 0.00 92 1008.8
20260506114550 75 0 0.0 0.0 0.00 0.00 0.00 92 1008.9